Flag for U.S.A. Weather past 2 weeks in Billings, Montana, U.S.A.

Now
57 °F

Partly cloudy.


Feels Like: 55 °F
Forecast: 51 / 72 °F
Wind: 10 mph from Southwest

Location: Billings Logan International Airport

Current Time: Sep 1, 2014 at 2:34:44 AM

Latest Report: Sep 1, 2014 at 1:53 AM


Visibility: 10 mi

Pressure: 29.87 "Hg

Humidity: 67%

Dew point: 46 °F

Location of BillingsLocation

Historic Weather in Billings — Graph

°F

Billings temperature yesterday

Maximum temperature yesterday: 73 °F (at 3:53 PM)
Minimum temperature yesterday: 56 °F (at 6:53 AM)
Average temperature yesterday: 63 °F

Past Weeks' High & Low Weather Summary

 TemperatureHumidityPressure
High92 °F (Aug 19, 3:53 PM)100% (Aug 23, 6:53 AM)30.19 "Hg (Aug 23, 6:53 AM)
Low45 °F (Aug 25, 5:53 AM)14% (Aug 19, 3:53 PM)29.59 "Hg (Aug 19, 3:53 PM)
Average65 °F61%29.91 "Hg
* Reported Aug 17 12:53 AM — Sep 1 12:53 AM, Billings, Weather by CustomWeather, © 2014

Note: Actual official high and low records may vary slightly from our data, if they occured in-between our weather recording intervals... More about our weather records

Advertising

Billings weather history for previous 24 hours

 ConditionsComfort  
Time TempWeatherWind HumidityBarometerVisibility
12:53 AM
Sep 1
58 °FPartly cloudy.14 mph65%29.87 "Hg10 mi
11:53 PM
Aug 31
57 °FPartly cloudy.14 mph72%29.87 "Hg10 mi
10:53 PM59 °FPartly cloudy.13 mph67%29.87 "Hg10 mi
9:53 PM60 °FPassing clouds.9 mph62%29.87 "Hg10 mi
8:53 PM62 °FBroken clouds.8 mph56%29.87 "Hg10 mi
7:53 PM62 °FBroken clouds.8 mph58%29.85 "Hg10 mi
6:53 PM65 °FBroken clouds.6 mph51%29.83 "Hg10 mi
5:53 PM68 °FLight rain. Broken clouds.8 mph40%29.81 "Hg10 mi
4:53 PM71 °FBroken clouds.9 mph36%29.78 "Hg10 mi
3:53 PM73 °FBroken clouds.12 mph33%29.78 "Hg10 mi
2:53 PM71 °FScattered clouds.14 mph32%29.79 "Hg10 mi
1:53 PM72 °FScattered clouds.10 mph31%29.79 "Hg10 mi
12:53 PM71 °FBroken clouds.16 mph32%29.79 "Hg10 mi
11:53 AM69 °FPartly sunny.15 mph33%29.80 "Hg10 mi
10:53 AM68 °FPartly sunny.15 mph38%29.80 "Hg10 mi
9:53 AM64 °FBroken clouds.6 mph56%29.81 "Hg10 mi
8:53 AM60 °FPartly sunny.8 mph67%29.80 "Hg10 mi
7:53 AM57 °FPartly sunny.9 mph72%29.79 "Hg10 mi
6:53 AM56 °FPassing clouds.12 mph72%29.77 "Hg10 mi
5:53 AM57 °FOvercast.12 mph69%29.75 "Hg10 mi
4:53 AM57 °FPartly cloudy.14 mph69%29.74 "Hg10 mi
3:53 AM57 °FPartly cloudy.13 mph69%29.74 "Hg10 mi
2:53 AM57 °FMostly cloudy.8 mph69%29.74 "Hg10 mi
Weather by CustomWeather, © 2014

See weather overviewHow to use our weather pages